Change the Weather History Date:

Wednesday, November 7, 2012

  Actual Average Record
Temperature  
Mean Temperature 26 °F -  
Max Temperature 37 °F 46 °F 64 °F (2011)
Min Temperature 16 °F 26 °F 16 °F (2012)
Degree Days  
Heating Degree Days 38    
Moisture  
Dew Point 17 °F    
Average Humidity 63    
Maximum Humidity 92    
Minimum Humidity 37    
Precipitation  
Precipitation 0.00 in - - ()
Sea Level Pressure  
Sea Level Pressure 30.13 in    
Wind  
Wind Speed 5 mph (North)    
Max Wind Speed 14 mph    
Max Gust Speed 25 mph    
Visibility 10 miles    
Events Snow    
Averages and records for this station are not official NWS values.
T = Trace of Precipitation, MM = Missing Value Source: NWS Daily Summary

Daily Weather History Graph

Daily Weather History Graph

Search for Another Location

Airport or City:

Trip Planner

Search our weather history database for the weather conditions in past years. The results will help you decide how hot, cold, wet, or windy it might be!

Date:

Astronomy

Nov. 07, 2012 Rise Set
Actual Time 6:28 AM EST 4:25 PM EST
Civil Twilight 5:58 AM EST 4:56 PM EST
Nautical Twilight 5:23 AM EST 5:30 PM EST
Astronomical Twilight 4:49 AM EST 6:04 PM EST
Moon No Moon Rise 12:46 PM EST (11/7)
Length of Visible Light 10h 57m
Length of Day
9h 56m
Last Quarter, 43% of the Moon is Illuminated
Nov 7
Last Quarter
Nov 13
New
Nov 20
First Quarter
Nov 28
Full
Dec 6
Last Quarter

Hourly Weather History & Observations

Time (EST) Temp. Windchill Dew Point Humidity Pressure Visibility Wind Dir Wind Speed Gust Speed Precip Events Conditions
12:54 AM 17.1 °F - 14.0 °F 88% 30.26 in 10.0 mi Calm Calm - N/A   Clear
1:54 AM 16.0 °F - 14.0 °F 92% 30.28 in 10.0 mi Calm Calm - N/A   Clear
2:54 AM 17.1 °F - 15.1 °F 92% 30.26 in 10.0 mi Calm Calm - N/A   Clear
3:54 AM 16.0 °F 10.4 °F 12.9 °F 88% 30.25 in 10.0 mi WNW 3.5 mph - N/A   Clear
4:54 AM 17.1 °F - 15.1 °F 92% 30.26 in 10.0 mi Calm Calm - N/A   Clear
5:54 AM 21.0 °F 14.6 °F 19.0 °F 92% 30.24 in 10.0 mi NNW 4.6 mph - N/A   Clear
6:54 AM 23.0 °F 18.4 °F 19.0 °F 85% 30.25 in 10.0 mi NNW 3.5 mph - N/A   Clear
7:54 AM 26.1 °F 17.6 °F 19.0 °F 75% 30.24 in 10.0 mi North 8.1 mph - N/A   Clear
8:54 AM 28.0 °F 20.8 °F 19.0 °F 69% 30.22 in 10.0 mi North 6.9 mph - N/A   Clear
9:54 AM 30.0 °F 24.1 °F 19.0 °F 64% 30.22 in 10.0 mi North 5.8 mph - N/A   Clear
10:54 AM 32.0 °F 24.2 °F 18.0 °F 56% 30.18 in 10.0 mi NNE 9.2 mph - N/A   Clear
11:54 AM 32.0 °F 24.2 °F 17.1 °F 54% 30.14 in 10.0 mi North 9.2 mph 17.3 mph N/A   Clear
12:54 PM 33.1 °F 25.5 °F 16.0 °F 50% 30.11 in 10.0 mi North 9.2 mph - N/A   Clear
1:54 PM 34.0 °F 27.2 °F 16.0 °F 48% 30.08 in 10.0 mi NNE 8.1 mph - N/A   Clear
2:54 PM 34.0 °F 26.6 °F 14.0 °F 44% 30.06 in 10.0 mi North 9.2 mph - N/A   Clear
3:54 PM 35.1 °F 32.2 °F 15.1 °F 44% 30.05 in 10.0 mi Variable 3.5 mph - N/A   Scattered Clouds
4:54 PM 36.0 °F 29.0 °F 14.0 °F 41% 30.04 in 10.0 mi NNE 9.2 mph - N/A   Clear
6:54 PM 37.0 °F 29.3 °F 14.0 °F 39% 30.02 in 10.0 mi NNE 11.5 mph 18.4 mph N/A   Clear
7:54 PM 37.0 °F 29.8 °F 12.9 °F 37% 30.01 in 10.0 mi NNE 10.4 mph - N/A   Mostly Cloudy
8:54 PM 37.0 °F 29.8 °F 14.0 °F 39% 29.99 in 10.0 mi NNE 10.4 mph 18.4 mph N/A   Overcast
9:54 PM 37.0 °F 29.3 °F 15.1 °F 41% 29.98 in 10.0 mi NE 11.5 mph 24.2 mph N/A   Overcast
10:54 PM 37.0 °F 28.5 °F 17.1 °F 44% 29.97 in 10.0 mi NNE 13.8 mph 25.3 mph N/A   Overcast
11:40 PM 33.8 °F 24.3 °F 23.0 °F 65% 29.94 in 6.0 mi NNE 13.8 mph 21.9 mph 0.00 in Snow Light Snow
11:54 PM 33.1 °F 23.9 °F 25.0 °F 72% 29.96 in 3.0 mi NE 12.7 mph 23.0 mph 0.00 in Snow Light Snow